www.pogodaiklimat.ru
ПОГОДА в Сан-Мартине
Время
(UTC), дата
00 16.01
03 16.01
06 16.01
09 16.01
12 16.01
15 16.01
18 16.01
21 16.01
00 17.01
03 17.01
06 17.01
09 17.01
12 17.01
15 17.01
18 17.01
21 17.01
00 18.01
03 18.01
06 18.01
09 18.01
12 18.01
15 18.01
18 18.01
21 18.01
00 19.01
03 19.01
06 19.01
09 19.01
12 19.01
15 19.01
18 19.01
21 19.01
00 20.01
03 20.01
06 20.01
09 20.01
12 20.01
15 20.01
18 20.01
21 20.01
00 21.01
03 21.01
06 21.01
09 21.01
12 21.01
15 21.01
18 21.01
21 21.01
00 22.01
03 22.01
06 22.01
09 22.01
12 22.01
15 22.01
18 22.01
21 22.01
Ветер
(напр.,м/с)
Видим. Явления Облачность Т
(С)
Тd
(С)
f
(%)
Тe
(С)
Тes
(С)
Комфортность P
(гПа)
Po
(гПа)
Тmin
(С)
Tmax
(С)
R
(мм)
R24
(мм)
S
(см)
штиль 0 15 км ясно +23.8 +8.4 37 +24 +24 комфорт 1010.9 938.1 +21.5 +28.1
штиль 0 15 км ясно +19.8 +8.0 46 +21 +21 комфорт 1015.2 941.8
штиль 0 15 км 6/6 1050 м
[Sc]
+18.2 +6.8 47 +18 +18 1016.2 942.9
штиль 0 15 км 9/9 1050 м
[Sc]
+18.2 +6.0 45 +18 +18 1017.1 943.8
Ю 1 15 км 9/9 1050 м
[Sc]
+19.3 +8.3 49 +21 +22 комфорт 1019.7 946.0 +16.6 +23.8
ЮВ 3 15 км 9/0
[Cs]
+24.1 +5.9 31 +24 +38 комфорт 1019.4 945.8
ЮВ 3 15 км 9/0
[Cs]
+27.0 +5.7 26 +26 +40 жарко 1017.5 944.2
ЮВ 3 15 км 8/0
[Cs]
+27.7 +6.4 26 +27 +31 жарко 1015.4 942.4
штиль 0 15 км ясно +23.5 +7.9 37 +24 +24 комфорт 1016.4 942.9 +19.3 +28.7
штиль 0 15 км ясно +20.3 +8.7 47 +21 +21 комфорт 1017.5 944.1
штиль 0 15 км ясно +18.3 +8.8 54 +19 +19 1016.0 942.8
штиль 0 15 км ясно +17.1 +7.3 52 +17 +17 1014.5 941.3
ЮВ 1 15 км ясно +21.0 +9.4 47 +24 +30 комфорт 1014.4 941.3 +15.7 +23.5
ЮВ 1 15 км ясно +27.0 +11.4 38 +28 +50 жарко 1012.3 939.6
СВ 1 15 км 5/0
[Cs]
+30.8 +11.0 30 +31 +51 опасность
солнечного
удара
1009.4 937.2
С 1 15 км 9/0
[Cs]
+32.5 +11.0 27 +32 +38 жарко 1007.2 935.2
штиль 0 15 км 3/0
[Ci fib]
+28.3 +15.1 45 +31 +31 душно 1008.2 936.1 +21.0 +32.8
СВ 1 15 км ясно +23.9 +12.6 49 +26 +26 жарко 1009.5 937.4
штиль 0 15 км ясно +20.5 +13.0 62 +22 +22 комфорт 1008.3 936.4
штиль 0 15 км 9/0
[Ac As]
+20.5 +14.5 68 +23 +23 комфорт 1008.2 936.5
СВ 1 15 км 5/5 1050 м
[Sc]
+23.4 +15.7 62 +28 +31 душно 1010.5 938.5 +20.4 +28.3
штиль 0 15 км 1/0
[Ci fib]
+28.9 +17.8 51 +33 +58 опасность
солнечного
удара
1009.1 937.3
СВ 4 15 км 3/3 1050 м
[Sc]
+33.1 +15.5 35 +35 +44 душно 1006.3 934.8
СВ 1 15 км 3/0
[Ac As]
+34.3 +16.0 34 +37 +42 очень
душно
1004.8 933.6
штиль 0 15 км 3/0
[Ac As]
+29.8 +18.0 49 +34 +34 очень
душно
1006.1 934.5 +23.4 +35.0
штиль 0 15 км ясно +26.6 +16.9 55 +30 +30 душно 1006.8 935.4
штиль 0 15 км ясно +23.6 +17.0 66 +27 +27 жарко 1005.8 934.6
штиль 0 15 км ясно +20.4 +17.9 86 +24 +24 комфорт 1005.3 934.0
СВ 3 15 км 1/0
[Cc]
+26.9 +17.5 56 +31 +35 душно 1006.0 934.8 +20.4 +29.8
СВ 3 15 км 4/0
[Ac trans Cc]
+32.2 +19.1 46 +38 +51 опасность
солнечного
удара
1004.6 933.8
ЮЗ 3 15 км 9/3 1050 м
[Sc Ac As Ci]
+34.9 +19.9 41 +41 +47 опасность
перегрева
1002.3 931.7
ЮЗ 3 15 км 10/5 1050 м
[Sc Ac As]
+34.3 +19.8 43 +40 +41 очень
душно
1002.7 931.6
штиль 0 15 км 10/10 1050 м
[Sc]
+31.7 +21.1 53 +39 +39 очень
душно
1004.0 933.2 +26.9 +35.3
штиль 0 15 км 8/8 1050 м
[Sc]
+29.3 +21.1 61 +37 +37 очень
душно
1004.7 934.2
штиль 0 15 км ясно +26.1 +21.1 74 +33 +33 очень
душно
1003.6 933.0
штиль 0 15 км ясно +24.5 +17.5 65 +29 +29 душно 1003.0 932.4
ЮВ 3 15 км ясно +28.7 +18.9 55 +34 +38 очень
душно
1004.3 933.7 +24.2 +31.7
В 3 15 км ясно +35.7 +20.5 41 +42 +59 опасность
перегрева
1003.0 933.0
С 7 15 км 4/3 1050 м
[Cu med, cong Ci sp]
+39.4 +18.0 29 +43 +47 опасность
перегрева
999.5 929.8
ЮВ 7 15 км 1/1 1050 м
[Cu hum]
+35.6 +18.4 36 +40 +41 очень
душно
999.1 928.8
ЮВ 7 15 км 3/3 1200 м
[Cu hum]
+29.2 +15.1 42 +32 +32 душно 1004.3 933.4 +28.7 +40.7
штиль 0 15 км зарница {гроза, дождь} 3/3 1050 м
[Sc diur, vesp]
+24.7 +19.6 73 +30 +30 очень
душно
1008.2 937.3
ЮВ 4 15 км {гроза, дождь} 3/3 1200 м
[Sc]
+23.7 +17.8 70 +28 +28 душно 1009.3 938.6 0.2
штиль 0 15 км 3/0
[Cs]
+21.8 +18.7 83 +27 +27 душно 1008.8 937.4
Ю 1 15 км 1/0
[Ac trans]
+25.1 +18.7 68 +30 +35 душно 1009.3 937.7 +21.7 +29.2 0.2
ЮВ 4 15 км ясно +30.3 +18.8 50 +35 +47 очень
душно
1011.1 939.4
В 4 15 км ясно +34.1 +18.5 40 +39 +51 опасность
солнечного
удара
1011.4 940.0
СВ 3 15 км ясно +34.5 +17.7 37 +38 +43 очень
душно
1008.0 936.6
В 3 15 км ясно +30.2 +16.2 43 +33 +33 душно 1007.2 935.8 +25.1 +35.0
ЮВ 7 15 км 1/1 1050 м
[Sc]
+25.8 +17.4 60 +30 +30 душно 1010.0 938.5
штиль 0 15 км 1/1 1050 м
[Sc]
+24.4 +17.2 64 +28 +28 душно 1010.0 938.8
ЮЗ 1 15 км 3/3 1050 м
[Sc]
+23.6 +16.3 64 +27 +27 жарко 1010.0 938.8
Ю 1 15 км 1/1 1200 м
[Sc]
+25.2 +16.7 59 +29 +34 душно 1012.2 940.5 +22.6 +30.2
ЮВ 3 15 км ясно +30.7 +15.1 39 +33 +50 душно 1011.2 939.7
ЮВ 3 15 км ясно +34.6 +13.1 27 +35 +52 опасность
солнечного
удара
1008.9 937.8
ЮВ 1 15 км ясно +35.4 +12.0 24 +35 +41 очень
жарко
1006.8 935.8
Местоположение метеостанции Сан-Мартин (Аргентина): широта -33.08 долгота -68.41 высота над уровнем моря 653 м.
В архиве по умолчанию представлена погода в Сан-Мартине за последнюю неделю. Архивные данные за месяц целиком и за предыдущие месяцы, начиная с января 2011 года, Вы можете получить, выбрав интересующий диапазон дат из раскрывающегося списка и нажав кнопку "Найти!".
*Определитесь, кто Вы:
Внимание! Время в таблицах - всемирное. Для получения местного времени необходимо прибавить поправку, которая равна -3 ч.
Смотрите также архив погоды в соседних городах и на ближайших метеорологических станциях:
Партнеры нашего сайта:      
Пояснения к столбцам:
  • Ветер - указаны скорость ветра в м/с - средняя за 10 мин, порывы в срок и между сроками (в фигурных скобках) и направление, откуда дует ветер: С - северный,
  • СВ - северо-восточный, В - восточный, ЮВ - юго-восточный, Ю - южный, ЮЗ - юго-западный, З - западный, СЗ - северо-западный.
  • Видимость - горизонтальная дальность видимости в метрах или километрах. При видимости от 1 до 10 км при отсутствии осадков обычно наблюдается дымка, при ухудшении видимости до 1 км и менее - туман. В сухую погоду видимость может ухудшаться дымом, пылью или мглою.
  • Явления - указаны атмосферные явления, наблюдавшиеся в срок или в последний час перед сроком; фигурными скобками обозначены явления, наблюдавшиеся между сроками (за 1-3 часа до срока); квадратными скобками обозначены град или гололедные отложения с указанием их диаметра в мм.
  • Облачность - указаны через наклонную черту общая и нижняя облачность в баллах и высота нижней границы облаков в метрах; квадратными скобками обозначены формы облаков: Ci - перистые, Cs - перисто-слоистые, Cc - перисто-кучевые, Ac - высококучевые, As - высокослоистые, Sc - слоисто-кучевые, Ns - слоисто-дождевые, Cu - кучевые, Cb - кучево-дождевые. Подробнее классификацию облаков см. в Атласе облаков (PDF).
  • T - Температура воздуха - температура, измеренная на высоте 2 м над землей.
  • Td - Температура точки росы - температура, при понижении до которой содержащийся в воздухе водяной пар достигнет насыщения.
  • f - Относительная влажность воздуха - влажноcть воздуха, измеренная на высоте 2 м над землей.
  • Te - Эффективная температура - температура, которую ощущает одетый по сезону человек в тени. Характеристика душности погоды. При расчете учитывается влияние влажности воздуха и скорости ветра на теплоощущения человека.
  • Tes - Эффективная температура на солнце - температура, которую ощущает человек, с поправкой на солнечный нагрев. Характеристика знойности погоды. Зависит от высоты солнца над горизонтом, облачности и скорости ветра. Ночью, в пасмурную погоду, а также при ветре 12 м/с и более поправка равна нулю.
  • P - Атмосферное давление - приведенное к уровню моря атмосферное давление.
  • Po - Атмосферное давление - измеренное на уровне метеостанции атмосферное давление.
  • Tmin - Минимальная температура - минимум температуры воздуха на высоте 2 м над землей.
  • Tmax - Максимальная температура - максимум температуры воздуха на высоте 2 м над землей.
  • R - Количество осадков - Количество выпавших осадков за период времени, мм. При наведении курсора мыши на число - период времени, за который выпало указанное количество осадков.
  • R24 - Количество осадков - Количество выпавших осадков за 24 часа, мм.
  • S - Снежный покров - Высота снежного покрова, см. При наведении курсора мыши на число - состояние снежного покрова и степень покрытия местности в баллах.